518  
ASUS44 KLCH 181310  
RWRLCH  
REGIONAL WEATHER ROUNDUP  
NATIONAL WEATHER SERVICE LAKE CHARLES LA  
800 AM CDT THU JUL 18 2019  
 
NOTE: "FAIR" INDICATES FEW OR NO CLOUDS BELOW 12,000 FEET WITH NO  
SIGNIFICANT WEATHER AND/OR S TO VISIBILITY
.  
 
ACROSS SOUTHEAST TEXAS  
 
CITY SKY/WX TMP DP RH WIND PRES REMARKS
 
BEAUMONT FAIR 82 78 88 S3 30.05R  
BEAUMONT CITY NOT AVBL  
ORANGE FAIR 81 81 100 CALM 30.08R  
JASPER PTSUNNY 68 68 99 CALM 30.09R FOG  

 
 
ACROSS CENTRAL LOUISIANA  
 
CITY SKY/WX TMP DP RH WIND PRES REMARKS
 
LEESVILLE NOT AVBL  
FULLERTON NOT AVBL  
ALEXANDRIA INT FOG 76 76 100 S3 30.05R VSB 1/4  
ESLER FIELD CLOUDY 78 78 100 CALM 30.08R FOG  
DERIDDER CLOUDY N/A N/A N/A CALM 30.10R FOG  
OAKDALE NOT AVBL  
OPELOUSAS FAIR 78 78 100 CALM 30.07F  

 
 
ACROSS SOUTHWEST AND SOUTH CENTRAL LOUISIANA  
 
CITY SKY/WX TMP DP RH WIND PRES REMARKS
 
DEQUINCY FAIR 78 77 96 CALM 30.08R  
SULPHUR FAIR 83 79 86 SE5 30.08R  
LAKE CHARLES FAIR 82 78 88 SE3 30.07R  
CHENNAULT INT SUNNY 81 79 94 CALM 30.07S  
CAMERON PHI NOT AVBL  
GRAND CHENIER NOT AVBL  
JENNINGS FAIR 81 78 90 CALM 30.07S  
LAFAYETTE FAIR 80 80 100 CALM 30.08S  
NEW IBERIA FAIR 82 80 94 CALM 30.08S  
ABBEVILLE FAIR N/A N/A N/A CALM 30.08S  
PATTERSON FAIR 81 80 97 CALM 30.09S  
SALT POINT N/A 84 79 85 MISG 30.07R  

 
 
SELECTED SITES ACROSS THE REGION  
 
CITY SKY/WX TMP DP RH WIND PRES REMARKS
 
HOUSTON BUSH MOSUNNY 81 77 88 S6 30.05R  
HOUSTON HOBBY FAIR 83 75 77 S7 30.04R  
GALVESTON FAIR 86 77 74 S12 30.06R  
COLLEGE STAT MOSUNNY 79 77 94 S7 30.04S  
CONROE SUNNY 79 77 94 CALM 30.06R  
HUNTSVILLE SUNNY 81 76 84 S10 30.05R  
LUFKIN CLOUDY 75 75 100 S7 30.06R  
SHREVEPORT PTSUNNY 81 76 84 SW7 30.05R  
MONROE FAIR 80 76 87 SW9 30.08R  
NATCHEZ MS CLOUDY 79 77 94 SW3 30.10R  
BATON ROUGE FAIR 82 78 88 CALM 30.08S  
N.O. INTL ARPT FAIR 85 78 80 CALM 30.08S  
SLIDELL FAIR 81 76 84 CALM 30.08S  

 
 
MARINE REPORTS  
 
STATION/POSITION TIME SKY/WX TEMP WIND PRES VSBY
 
AIR SEA DIR/SP/G  
(UTC) (F) (DEG/KT/KT) (MB) (MI)  
BUOY 30 S HIGH I 1250 86 160/ 12/ 14 1018.3R  
WVE H/P(F/S)= 3/ 5  
 
SEA RIM ST PARK NOT AVBL  
PORT ARTHUR 1230 82 85 170/ 2/ 3 1018.2R  
SABINE PASS N 1230 83 87 190/ 4/ 5 1019.5R  
TEXAS POINT 1230 83 85 190/ 7/ 9 1016.4R  
CALCASIEU PASS 1230 84 85 200/ 5/ 7 1017.2R  
LK CHARLES BEACH 1230 81 83 1017.9R  
MARSH ISLAND 1200 83 N/A  
FRESH WATER LOCK NOT AVBL  
AMERADA PASS 1230 84 83 CALM / 2 1018.5R  

 
 
 
CLICK HERE TO GO TO PREVIOUS BULLETINS.

The Nexlab LA Page
The Nexlab TX Page Main Text Page